CZ-4 DEB, 26151

Orbit data source: Space-Track

CZ-4 DEB, 26151 is space debris in SSO originally from a launch on Thu, 14 Oct 1999 UTC launched from the Taiyaun Space Center, China (TSC). Debris objects in space refer to the collection of defunct objects orbiting the Earth. Examples of debris include non-operational satellites, rocket bodies, and fragments generated from explosions, collisions, or faulty payload assembly.

Loading next visibility...
Identifier
26151, 1999-057AM
Orbit
SSO
Country
Flag of CNCN / PRC
Related business
Manufacturer
Unknown
Mission
Spacecraft
Bus & Motor
Unknown
Mass
Unknown
Launch date (UTC)
1999-10-14 (27 years ago)
Launch vehicle
Unknown
Launch site
Taiyaun Space Center, China (TSC)
Object type
Payload
Rocket body
Debris
Shape & HBR
Unknown shape, 0.1 m
Radar Cross Section
Medium (>0.1 m² and <1 m²)

Expand to show TLE details & history
Last TLE update: 2 days ago

TLE from 2 days ago
0 CZ-4 DEB
1 26151U 99057AM  26125.56466836  .00000270  00000-0  29606-3 0  9990
2 26151  99.4516  64.6032 0610659 264.8162 279.9053 13.19195517253229
Epoch: 2026-05-05T13:33Z
TLE epoch observation values (Epoch: 2026-05-05T13:33:07.346Z)
Latitude
2.11691°
Longitude
178.23567°
Altitude
1,138.57 km
Speed
7.309 km/s
True Right ascension
16h 19m 48s
True Declination
2° 06' 18"
Sunlit
Object was in full shadow at epoch
Visualization orbit readout
Latitude
Unknown
Longitude
Unknown
Altitude
Unknown
Speed
Unknown
Apparent Right ascension
Unknown
Apparent Declination
Unknown
Sunlit
N/A
Visualization observer readout
Local Sidereal Time
00:10:20
Azimuth
Unknown
Elevation
Unknown
Doppler factor
Unknown
Orbital elements
Apogee altitude
1,646.966 km
Perigee altitude
723.253 km
Semi-major axis
7,563.247 km
Eccentricity
0.06107
Inclination
99.4516°
RAAN
64.6032°
Arg. of periapsis
264.8162°
True anomaly
272.93755°
Mean anomaly
279.9053°
Eccentric anomaly
276.42848°
Mean motion
3.29975 °/min
Orbital period
109.1 mins
BSTAR
0.00029606
Loading maneuver chart data...
Computing Atmospheric mass density...

Documentation

Showing up to 5 results
|